EW9227 Weather Reports


time (UTC)temp
C
wind
direction
speed
KPH
gust
KPH
rain 1hr
cm
rain 24hr
cm
rain mn
cm
humidity
%
barometer
mb
20260507001541 13 278 9.7 16.1 0.00 0.00 0.00 83 1018.2
20260507001018 14 290 6.4 16.1 0.00 0.00 0.00 83 1018.1
20260507000518 14 283 4.8 14.5 0.00 0.00 0.00 82 1018.4
20260507000041 14 262 4.8 14.5 0.00 0.00 0.00 81 1018.6
20260506235518 14 272 4.8 14.5 0.00 0.00 0.00 81 1018.5
20260506235017 15 291 4.8 14.5 0.00 0.00 0.00 82 1018.4
20260506234537 14 292 4.8 14.5 0.00 0.00 0.00 82 1018.6
20260506234018 14 304 6.4 14.5 0.00 0.00 0.00 81 1018.5
20260506233521 14 278 4.8 12.9 0.00 0.00 0.00 82 1018.7
20260506233037 14 219 6.4 12.9 0.00 0.00 0.00 82 1018.6
20260506232517 15 294 6.4 12.9 0.00 0.00 0.00 81 1018.5
20260506232017 15 290 6.4 12.9 0.00 0.00 0.00 81 1018.6
20260506231546 15 280 6.4 12.9 0.00 0.00 0.00 81 1018.5
20260506231020 15 273 3.2 12.9 0.00 0.00 0.00 81 1018.6
20260506230518 15 278 6.4 14.5 0.00 0.00 0.00 81 1018.7
20260506230103 15 296 3.2 16.1 0.00 0.00 0.00 82 1018.6
20260506225518 15 287 6.4 16.1 0.00 0.00 0.00 81 1018.8
20260506225018 15 268 6.4 11.3 0.00 0.00 0.00 80 1018.8
20260506224541 15 306 3.2 11.3 0.00 0.00 0.00 80 1018.9
20260506224017 15 298 1.6 12.9 0.00 0.00 0.00 81 1019.0
20260506223518 15 0 4.8 12.9 0.00 0.00 0.00 81 1019.0
20260506223040 15 280 4.8 12.9 0.00 0.00 0.00 80 1019.1
20260506222518 15 281 0.0 12.9 0.00 0.00 0.00 80 1018.9
20260506222023 15 302 3.2 12.9 0.00 0.00 0.00 81 1019.2
20260506221542 15 301 1.6 12.9 0.00 0.00 0.00 81 1019.2
20260506221017 15 319 6.4 14.5 0.00 0.00 0.00 80 1019.3
20260506220517 15 0 3.2 14.5 0.00 0.00 0.00 80 1019.3
20260506220048 15 294 4.8 14.5 0.00 0.00 0.00 79 1019.5
20260506215521 15 305 4.8 11.3 0.00 0.00 0.00 80 1019.6
20260506215020 16 359 1.6 12.9 0.00 0.00 0.00 79 1019.5
20260506214539 15 281 8.0 12.9 0.00 0.00 0.00 79 1019.6
20260506214017 16 309 3.2 12.9 0.00 0.00 0.00 80 1019.6
20260506213520 16 283 1.6 11.3 0.00 0.00 0.00 77 1019.6
20260506213055 16 0 0.0 11.3 0.00 0.00 0.00 78 1019.7
20260506212517 16 283 3.2 11.3 0.00 0.00 0.00 78 1019.7
20260506212025 16 311 0.0 9.7 0.00 0.00 0.00 77 1019.6
20260506211542 16 269 3.2 9.7 0.00 0.00 0.00 78 1019.7
20260506211018 16 274 0.0 9.7 0.00 0.00 0.00 78 1019.7
20260506210520 16 279 0.0 9.7 0.00 0.00 0.00 78 1019.7
20260506210052 16 0 3.2 9.7 0.00 0.00 0.00 79 1019.7
20260506205517 16 281 4.8 9.7 0.00 0.00 0.00 78 1019.7
20260506205018 16 262 1.6 8.0 0.00 0.00 0.00 77 1019.8
20260506204540 16 0 1.6 8.0 0.00 0.00 0.00 77 1019.7
20260506204020 17 0 0.0 6.4 0.00 0.00 0.00 76 1019.9
20260506203520 17 0 0.0 6.4 0.00 0.00 0.00 77 1019.8
20260506203037 16 0 0.0 6.4 0.00 0.00 0.00 77 1019.8
20260506202517 16 271 1.6 8.0 0.00 0.00 0.00 77 1019.9
20260506202019 16 0 1.6 8.0 0.00 0.00 0.00 77 1020.0
20260506201544 16 0 0.0 6.4 0.00 0.00 0.00 77 1020.0
20260506201018 16 0 0.0 6.4 0.00 0.00 0.00 77 1020.2
20260506200520 16 0 0.0 4.8 0.00 0.00 0.00 77 1020.0
20260506200042 16 0 0.0 4.8 0.00 0.00 0.00 76 1020.2
20260506195518 16 328 0.0 6.4 0.00 0.00 0.00 77 1020.2
20260506195020 16 0 1.6 6.4 0.00 0.00 0.00 76 1020.3
20260506194541 16 285 0.0 4.8 0.00 0.00 0.00 75 1020.3
20260506194022 16 0 0.0 4.8 0.00 0.00 0.00 76 1020.4
20260506193518 16 0 0.0 4.8 0.00 0.00 0.00 76 1020.3
20260506193041 16 0 0.0 3.2 0.00 0.00 0.00 75 1020.4
20260506192518 16 0 0.0 3.2 0.00 0.00 0.00 75 1020.5
20260506192021 16 0 0.0 0.0 0.00 0.00 0.00 76 1020.3
20260506191537 16 0 0.0 0.0 0.00 0.00 0.00 76 1020.5
20260506191018 16 0 0.0 0.0 0.00 0.00 0.00 77 1020.5
20260506190518 16 0 0.0 0.0 0.00 0.00 0.00 76 1020.5
20260506190038 16 0 0.0 0.0 0.00 0.00 0.00 76 1020.5
20260506185519 16 0 0.0 0.0 0.00 0.00 0.00 77 1020.6
20260506185020 16 0 0.0 0.0 0.00 0.00 0.00 77 1020.4
20260506184541 16 0 0.0 0.0 0.00 0.00 0.00 77 1020.5
20260506184017 16 0 0.0 0.0 0.00 0.00 0.00 77 1020.6
20260506183520 16 0 0.0 1.6 0.00 0.00 0.00 78 1020.5
20260506183041 16 0 0.0 1.6 0.00 0.00 0.00 77 1020.4
20260506182518 16 0 0.0 0.0 0.00 0.00 0.00 78 1020.5
20260506182020 15 0 0.0 0.0 0.00 0.00 0.00 79 1020.5
20260506181542 15 0 0.0 1.6 0.00 0.00 0.00 79 1020.6
20260506181018 15 0 0.0 1.6 0.00 0.00 0.00 78 1020.5
20260506180518 15 0 0.0 1.6 0.00 0.00 0.00 78 1020.4
20260506180041 16 0 0.0 1.6 0.00 0.00 0.00 77 1020.4
20260506175517 15 0 0.0 1.6 0.00 0.00 0.00 77 1020.3
20260506175017 16 0 0.0 0.0 0.00 0.00 0.00 76 1020.4
20260506174537 16 0 0.0 0.0 0.00 0.00 0.00 76 1020.3
20260506174018 16 0 0.0 0.0 0.00 0.00 0.00 76 1020.3
20260506173520 15 0 0.0 0.0 0.00 0.00 0.00 79 1020.4
20260506173044 15 0 0.0 0.0 0.00 0.00 0.00 78 1020.4
20260506172517 15 0 0.0 0.0 0.00 0.00 0.00 80 1020.4
20260506172018 15 0 0.0 0.0 0.00 0.00 0.00 79 1020.5
20260506171548 14 0 0.0 0.0 0.00 0.00 0.00 79 1020.5
20260506171017 15 0 0.0 0.0 0.00 0.00 0.00 79 1020.6
20260506170520 15 0 0.0 0.0 0.00 0.00 0.00 79 1020.6
20260506170047 15 0 0.0 0.0 0.00 0.00 0.00 79 1020.6
20260506165517 15 0 0.0 0.0 0.00 0.00 0.00 79 1020.5
20260506165017 15 0 0.0 0.0 0.00 0.00 0.00 79 1020.5
20260506164544 15 0 0.0 0.0 0.00 0.00 0.00 79 1020.4
20260506164019 14 0 0.0 0.0 0.00 0.00 0.00 79 1020.5
20260506163517 14 0 0.0 0.0 0.00 0.00 0.00 79 1020.5
20260506163037 14 0 0.0 0.0 0.00 0.00 0.00 80 1020.4
20260506162519 14 0 0.0 0.0 0.00 0.00 0.00 80 1020.5
20260506162018 14 0 0.0 0.0 0.00 0.00 0.00 80 1020.4
20260506161542 13 0 0.0 0.0 0.00 0.00 0.00 81 1020.6
20260506161017 13 0 0.0 0.0 0.00 0.00 0.00 80 1020.5
20260506160517 13 0 0.0 0.0 0.00 0.00 0.00 81 1020.5
20260506160044 13 0 0.0 0.0 0.00 0.00 0.00 81 1020.5
20260506155518 13 0 0.0 0.0 0.00 0.00 0.00 81 1020.5
20260506155019 13 0 0.0 0.0 0.00 0.00 0.00 82 1020.5
20260506154538 13 0 0.0 0.0 0.00 0.00 0.00 82 1020.6
20260506154017 13 0 0.0 0.0 0.00 0.00 0.00 82 1020.7
20260506153517 13 0 0.0 0.0 0.00 0.00 0.00 82 1020.5
20260506153043 13 0 0.0 0.0 0.00 0.00 0.00 82 1020.5
20260506152520 13 0 0.0 0.0 0.00 0.00 0.00 82 1020.5
20260506152019 13 0 0.0 0.0 0.00 0.00 0.00 82 1020.3
20260506151543 13 0 0.0 0.0 0.00 0.00 0.00 82 1020.4
20260506151018 13 0 0.0 0.0 0.00 0.00 0.00 82 1020.4
20260506150517 13 0 0.0 0.0 0.00 0.00 0.00 83 1020.4
20260506150040 12 0 0.0 0.0 0.00 0.00 0.00 82 1020.3
20260506145517 12 0 0.0 0.0 0.00 0.00 0.00 82 1020.3
20260506145019 12 0 0.0 0.0 0.00 0.00 0.00 83 1020.3
20260506144554 12 0 0.0 0.0 0.00 0.00 0.00 83 1020.3
20260506144021 12 0 0.0 0.0 0.00 0.00 0.00 84 1020.2
20260506143518 12 0 0.0 0.0 0.00 0.00 0.00 84 1020.2
20260506143037 12 0 0.0 0.0 0.00 0.00 0.00 84 1020.2
20260506142519 12 0 0.0 0.0 0.00 0.00 0.00 84 1020.2
20260506142019 12 0 0.0 0.0 0.00 0.00 0.00 83 1020.1
20260506141543 12 0 0.0 0.0 0.00 0.00 0.00 84 1020.1
20260506141021 12 0 0.0 0.0 0.00 0.00 0.00 83 1020.0
20260506140520 12 0 0.0 0.0 0.00 0.00 0.00 84 1019.9
20260506140042 12 0 0.0 0.0 0.00 0.00 0.00 84 1019.9
20260506135518 12 0 0.0 0.0 0.00 0.00 0.00 84 1019.8
20260506135019 12 0 0.0 0.0 0.00 0.00 0.00 84 1019.8
20260506134541 12 0 0.0 0.0 0.00 0.00 0.00 84 1019.7
20260506134021 12 0 0.0 0.0 0.00 0.00 0.00 84 1019.7
20260506133520 12 0 0.0 0.0 0.00 0.00 0.00 84 1019.7
20260506133041 12 0 0.0 0.0 0.00 0.00 0.00 84 1019.7
20260506132519 12 0 0.0 0.0 0.00 0.00 0.00 84 1019.8
20260506132022 12 0 0.0 0.0 0.00 0.00 0.00 84 1019.5
20260506131551 12 0 0.0 0.0 0.00 0.00 0.00 84 1019.5
20260506131023 12 0 0.0 0.0 0.00 0.00 0.00 84 1019.5
20260506130520 12 0 0.0 0.0 0.00 0.00 0.00 84 1019.4
20260506130037 12 0 0.0 0.0 0.00 0.00 0.00 84 1019.5
20260506125519 12 0 0.0 0.0 0.00 0.00 0.00 85 1019.5
20260506125018 12 0 0.0 0.0 0.00 0.00 0.00 85 1019.4
20260506124537 12 0 0.0 0.0 0.00 0.00 0.00 85 1019.5
20260506124021 12 0 0.0 0.0 0.00 0.00 0.00 85 1019.4
20260506123519 12 0 0.0 0.0 0.00 0.00 0.00 84 1019.5
20260506123045 12 0 0.0 0.0 0.00 0.00 0.00 84 1019.3
20260506122518 12 0 0.0 0.0 0.00 0.00 0.00 84 1019.4
20260506122023 12 0 0.0 0.0 0.00 0.00 0.00 84 1019.4
20260506121541 12 0 0.0 0.0 0.00 0.00 0.00 84 1019.4
20260506121019 12 0 0.0 0.0 0.00 0.00 0.00 84 1019.3
20260506120522 12 0 0.0 0.0 0.00 0.00 0.00 84 1019.4
20260506120040 12 0 0.0 0.0 0.00 0.00 0.00 84 1019.3
20260506115519 12 0 0.0 0.0 0.00 0.00 0.00 84 1019.5
20260506115020 12 0 0.0 0.0 0.00 0.00 0.00 84 1019.3
20260506114543 12 0 0.0 0.0 0.00 0.00 0.00 84 1019.4
20260506114016 12 0 0.0 0.0 0.00 0.00 0.00 84 1019.4
20260506113521 12 0 0.0 0.0 0.00 0.00 0.00 84 1019.1
20260506113037 12 0 0.0 0.0 0.00 0.00 0.00 84 1019.2
20260506112519 12 0 0.0 0.0 0.00 0.00 0.00 84 1019.2
20260506112019 12 0 0.0 1.6 0.00 0.00 0.00 84 1019.1
20260506111535 12 0 0.0 1.6 0.00 0.00 0.00 84 1019.0
20260506111019 12 0 0.0 4.8 0.00 0.00 0.00 84 1018.9
20260506110519 11 0 0.0 4.8 0.00 0.00 0.00 84 1018.9
20260506110035 11 289 0.0 0.0 0.00 0.00 0.00 85 1018.9
20260506105524 12 0 0.0 0.0 0.00 0.00 0.00 85 1018.9
20260506105017 12 0 0.0 0.0 0.00 0.00 0.00 85 1018.9
20260506104544 12 0 0.0 1.6 0.00 0.00 0.00 85 1019.0
20260506104017 12 0 0.0 1.6 0.00 0.00 0.00 85 1018.9
20260506103521 12 0 0.0 1.6 0.00 0.00 0.00 85 1019.0
20260506103038 12 0 0.0 1.6 0.00 0.00 0.00 85 1018.9
20260506102517 12 0 0.0 3.2 0.00 0.00 0.00 85 1018.9
20260506102017 12 0 0.0 3.2 0.00 0.00 0.00 85 1018.9
20260506101537 12 319 0.0 0.0 0.00 0.00 0.00 85 1018.8
20260506101016 12 0 0.0 1.6 0.00 0.00 0.00 85 1018.8
20260506100519 12 0 0.0 3.2 0.00 0.00 0.00 85 1018.8
20260506100037 12 298 0.0 3.2 0.00 0.00 0.00 85 1018.7
20260506095516 12 283 0.0 3.2 0.00 0.03 0.00 85 1018.6
20260506095017 12 0 0.0 3.2 0.00 0.03 0.00 85 1018.8
20260506094536 12 0 0.0 1.6 0.00 0.03 0.00 85 1018.8
20260506094017 12 0 0.0 0.0 0.00 0.03 0.00 85 1019.0
20260506093520 12 0 0.0 0.0 0.00 0.03 0.00 85 1018.9
20260506093034 12 0 0.0 0.0 0.00 0.03 0.00 84 1018.9
20260506092520 12 0 0.0 0.0 0.00 0.03 0.00 84 1018.9
20260506092019 12 0 0.0 0.0 0.00 0.03 0.00 84 1018.7
20260506091541 12 0 0.0 1.6 0.00 0.03 0.00 84 1018.7
20260506091016 12 0 0.0 1.6 0.00 0.03 0.00 84 1018.7
20260506090516 12 0 0.0 0.0 0.00 0.03 0.00 84 1018.8
20260506090041 12 0 0.0 1.6 0.00 0.03 0.00 84 1018.7
20260506085520 12 0 0.0 1.6 0.00 0.10 0.00 84 1018.8
20260506085019 12 0 0.0 0.0 0.00 0.10 0.00 84 1018.7
20260506084541 12 0 0.0 0.0 0.00 0.10 0.00 84 1018.8
20260506084022 12 0 0.0 3.2 0.00 0.10 0.00 84 1018.8
20260506083520 12 0 0.0 3.2 0.00 0.10 0.00 84 1018.8
20260506083037 12 0 0.0 0.0 0.00 0.10 0.00 84 1018.9
20260506082518 12 0 0.0 0.0 0.00 0.10 0.00 84 1018.9
20260506082018 12 0 0.0 1.6 0.00 0.10 0.00 84 1018.9
20260506081544 12 0 0.0 1.6 0.00 0.10 0.00 84 1018.9
20260506081019 12 0 0.0 1.6 0.00 0.10 0.00 84 1018.9
20260506080518 12 0 0.0 1.6 0.00 0.10 0.00 84 1019.0
20260506073519 12 297 0.0 3.2 0.00 0.20 0.00 84 1018.7
20260506073037 12 0 0.0 1.6 0.00 0.20 0.00 84 1018.6
20260506072519 12 0 0.0 3.2 0.00 0.20 0.00 84 1018.7
20260506072019 12 0 0.0 3.2 0.00 0.20 0.00 84 1018.5
20260506071539 12 0 0.0 1.6 0.00 0.20 0.00 84 1018.6
20260506071018 12 0 0.0 3.2 0.00 0.20 0.00 84 1018.5
20260506070521 12 0 0.0 3.2 0.00 0.20 0.00 85 1018.5
20260506062019 12 0 0.0 1.6 0.00 0.23 0.20 85 1018.1
20260506061540 12 0 0.0 1.6 0.00 0.23 0.20 84 1018.2
20260506061019 12 0 0.0 0.0 0.00 0.23 0.20 84 1018.1
20260506060518 12 0 0.0 1.6 0.00 0.23 0.20 84 1018.1
20260506051018 12 0 0.0 3.2 0.00 0.30 0.20 85 1018.0
20260506050518 12 0 0.0 1.6 0.00 0.30 0.20 85 1017.9
20260506045018 12 307 0.0 4.8 0.00 0.33 0.20 84 1017.7
20260506044545 12 294 0.0 3.2 0.00 0.33 0.20 84 1017.8
20260506044017 12 280 0.0 1.6 0.00 0.33 0.20 85 1017.8
20260506043518 12 0 0.0 1.6 0.00 0.33 0.20 85 1017.7
20260506043037 12 0 0.0 1.6 0.00 0.33 0.20 85 1017.6
20260506042524 12 0 0.0 0.0 0.00 0.33 0.20 85 1017.6
20260506042019 12 0 0.0 3.2 0.00 0.33 0.20 85 1017.6
20260506041537 12 0 0.0 3.2 0.00 0.33 0.20 85 1017.4
20260506041018 12 0 0.0 4.8 0.00 0.33 0.20 85 1017.3
20260506040518 12 0 0.0 4.8 0.00 0.33 0.20 85 1017.2
20260506040044 12 282 0.0 3.2 0.00 0.33 0.20 84 1017.0
20260506035521 12 0 0.0 3.2 0.00 0.33 0.20 85 1017.1
20260506035018 12 0 0.0 4.8 0.00 0.33 0.20 84 1017.1
20260506034541 12 252 0.0 4.8 0.00 0.33 0.20 84 1016.9
20260506034018 12 268 0.0 4.8 0.00 0.33 0.20 84 1016.9
20260506033519 12 0 0.0 4.8 0.00 0.33 0.20 84 1016.8
20260506033042 12 267 0.0 4.8 0.00 0.33 0.20 84 1016.8
20260506032518 12 276 0.0 3.2 0.00 0.33 0.20 83 1016.7
20260506032019 12 0 0.0 4.8 0.00 0.33 0.20 84 1016.6
20260506031540 12 0 0.0 4.8 0.00 0.33 0.20 83 1016.5
20260506031018 12 259 0.0 6.4 0.00 0.33 0.20 83 1016.5
20260506030519 12 0 0.0 6.4 0.00 0.33 0.20 83 1016.4
20260506030055 12 271 0.0 6.4 0.00 0.33 0.20 83 1016.4
20260506025518 12 293 1.6 6.4 0.00 0.33 0.20 83 1016.3
20260506025022 12 0 0.0 6.4 0.00 0.33 0.20 84 1016.3
20260506024550 12 267 1.6 6.4 0.00 0.33 0.20 83 1016.4
20260506024018 12 0 1.6 6.4 0.00 0.33 0.20 83 1016.3
20260506023519 12 284 0.0 6.4 0.00 0.33 0.20 83 1016.3
20260506023035 12 296 1.6 6.4 0.00 0.33 0.20 83 1016.2
20260506022518 13 0 1.6 9.7 0.00 0.33 0.20 83 1016.1
20260506022018 13 274 1.6 9.7 0.00 0.33 0.20 82 1015.9
20260506021542 13 288 3.2 9.7 0.00 0.33 0.20 82 1015.8
20260506021018 13 0 1.6 9.7 0.00 0.33 0.20 83 1015.8
20260506020522 13 295 1.6 9.7 0.00 0.33 0.20 83 1015.9
20260506020040 13 283 3.2 9.7 0.00 0.33 0.20 82 1015.9
20260506015518 13 276 3.2 9.7 0.00 0.33 0.20 83 1015.7
20260506015018 13 0 1.6 8.0 0.00 0.33 0.20 83 1015.9
20260506014552 13 270 1.6 11.3 0.00 0.33 0.20 82 1015.8
20260506014017 13 0 1.6 11.3 0.00 0.33 0.20 82 1015.8
20260506013518 13 262 1.6 8.0 0.00 0.33 0.20 82 1015.8
20260506013037 13 0 0.0 9.7 0.00 0.33 0.20 82 1015.9
20260506012519 13 0 1.6 11.3 0.00 0.33 0.20 81 1015.9
20260506012018 13 300 1.6 11.3 0.00 0.33 0.20 80 1016.0
20260506011539 13 292 4.8 11.3 0.00 0.33 0.20 79 1015.7
20260506011022 13 282 4.8 11.3 0.00 0.33 0.20 79 1015.9
20260506010518 13 292 1.6 9.7 0.00 0.33 0.20 79 1015.8
20260506010050 13 252 3.2 9.7 0.00 0.33 0.20 80 1015.8
20260506005518 13 298 6.4 9.7 0.00 0.33 0.20 78 1015.7
20260506005018 14 271 1.6 9.7 0.00 0.33 0.20 77 1015.8
20260506004549 13 200 3.2 9.7 0.00 0.33 0.20 78 1015.8
20260506004021 14 271 3.2 9.7 0.00 0.33 0.20 77 1015.7
20260506003519 14 283 3.2 9.7 0.00 0.33 0.20 76 1015.5
20260506003042 14 288 3.2 9.7 0.00 0.33 0.20 79 1015.5
20260506002520 14 268 0.0 9.7 0.00 0.33 0.20 78 1015.5
20260506002020 14 276 3.2 9.7 0.00 0.33 0.20 78 1015.5